Wetterdaten: Samstag, 28.08.2010
Datum Zeit Temp. A. Feuchte A. Luftdruck Regen Wind Richtung Richtung Sonnenschein UV Solar Windben
28.08.2010 00:00 13,0 C 89 % 1009,4 hPa 0,0 mm 4,8 km/h (1 Bft) W 270 0 min 0 UV-I 0 W/m 11,3 km/h (2 Bft)
28.08.2010 00:10 13,1 C 90 % 1009,6 hPa 0,0 mm 3,2 km/h (1 Bft) W 270 0 min 0 UV-I 0 W/m 14,5 km/h (3 Bft)
28.08.2010 00:20 13,1 C 90 % 1009,8 hPa 0,0 mm 4,8 km/h (1 Bft) W 270 0 min 0 UV-I 0 W/m 11,3 km/h (2 Bft)
28.08.2010 00:30 13,1 C 90 % 1009,8 hPa 0,0 mm 3,2 km/h (1 Bft) W 270 0 min 0 UV-I 0 W/m 11,3 km/h (2 Bft)
28.08.2010 00:40 13,1 C 90 % 1009,8 hPa 0,0 mm 1,6 km/h (1 Bft) W 270 0 min 0 UV-I 0 W/m 9,7 km/h (2 Bft)
28.08.2010 00:50 13,1 C 90 % 1009,8 hPa 0,0 mm 3,2 km/h (1 Bft) W 270 0 min 0 UV-I 0 W/m 9,7 km/h (2 Bft)
28.08.2010 01:00 13,1 C 90 % 1009,8 hPa 0,0 mm 1,6 km/h (1 Bft) W-NW 292 0 min 0 UV-I 0 W/m 9,7 km/h (2 Bft)
28.08.2010 01:10 13,1 C 90 % 1009,9 hPa 0,0 mm 1,6 km/h (1 Bft) W 270 0 min 0 UV-I 0 W/m 9,7 km/h (2 Bft)
28.08.2010 01:20 12,9 C 90 % 1009,8 hPa 0,0 mm 3,2 km/h (1 Bft) W-NW 292 0 min 0 UV-I 0 W/m 9,7 km/h (2 Bft)
28.08.2010 01:30 12,8 C 90 % 1009,8 hPa 0,0 mm 3,2 km/h (1 Bft) W-NW 292 0 min 0 UV-I 0 W/m 8,0 km/h (2 Bft)
28.08.2010 01:40 12,7 C 90 % 1010,1 hPa 0,0 mm 1,6 km/h (1 Bft) W-NW 292 0 min 0 UV-I 0 W/m 8,0 km/h (2 Bft)
28.08.2010 01:50 12,6 C 90 % 1010,1 hPa 0,0 mm 1,6 km/h (1 Bft) NW 315 0 min 0 UV-I 0 W/m 8,0 km/h (2 Bft)
28.08.2010 02:00 12,6 C 90 % 1010,2 hPa 0,0 mm 1,6 km/h (1 Bft) NW 315 0 min 0 UV-I 0 W/m 8,0 km/h (2 Bft)
28.08.2010 02:10 12,5 C 90 % 1010,2 hPa 0,0 mm 1,6 km/h (1 Bft) W 270 0 min 0 UV-I 0 W/m 8,0 km/h (2 Bft)
28.08.2010 02:20 12,4 C 90 % 1010,4 hPa 0,0 mm 3,2 km/h (1 Bft) W 270 0 min 0 UV-I 0 W/m 11,3 km/h (2 Bft)
28.08.2010 02:30 12,3 C 90 % 1010,4 hPa 0,0 mm 1,6 km/h (1 Bft) W-NW 292 0 min 0 UV-I 0 W/m 11,3 km/h (2 Bft)
28.08.2010 02:40 12,3 C 90 % 1010,7 hPa 0,0 mm 3,2 km/h (1 Bft) W 270 0 min 0 UV-I 0 W/m 14,5 km/h (3 Bft)
28.08.2010 02:50 12,2 C 90 % 1010,7 hPa 0,0 mm 3,2 km/h (1 Bft) W 270 0 min 0 UV-I 0 W/m 9,7 km/h (2 Bft)
28.08.2010 03:00 12,2 C 90 % 1010,8 hPa 0,0 mm 3,2 km/h (1 Bft) W 270 0 min 0 UV-I 0 W/m 14,5 km/h (3 Bft)
28.08.2010 03:10 12,2 C 90 % 1010,9 hPa 0,0 mm 1,6 km/h (1 Bft) W-SW 247 0 min 0 UV-I 0 W/m 9,7 km/h (2 Bft)
28.08.2010 03:20 12,2 C 89 % 1011,0 hPa 0,0 mm 3,2 km/h (1 Bft) W 270 0 min 0 UV-I 0 W/m 11,3 km/h (2 Bft)
28.08.2010 03:30 12,2 C 89 % 1011,1 hPa 0,0 mm 1,6 km/h (1 Bft) W-NW 292 0 min 0 UV-I 0 W/m 9,7 km/h (2 Bft)
28.08.2010 03:40 12,2 C 89 % 1011,1 hPa 0,0 mm 1,6 km/h (1 Bft) W 270 0 min 0 UV-I 0 W/m 9,7 km/h (2 Bft)
28.08.2010 03:50 12,2 C 89 % 1011,3 hPa 0,0 mm 1,6 km/h (1 Bft) W 270 0 min 0 UV-I 0 W/m 8,0 km/h (2 Bft)
28.08.2010 04:00 12,2 C 89 % 1011,3 hPa 0,0 mm 3,2 km/h (1 Bft) W 270 0 min 0 UV-I 0 W/m 9,7 km/h (2 Bft)
28.08.2010 04:10 12,1 C 89 % 1011,3 hPa 0,0 mm 3,2 km/h (1 Bft) W 270 0 min 0 UV-I 0 W/m 9,7 km/h (2 Bft)
28.08.2010 04:20 12,1 C 89 % 1011,4 hPa 0,0 mm 4,8 km/h (1 Bft) W 270 0 min 0 UV-I 0 W/m 14,5 km/h (3 Bft)
28.08.2010 04:30 12,1 C 89 % 1011,5 hPa 0,0 mm 3,2 km/h (1 Bft) W 270 0 min 0 UV-I 0 W/m 9,7 km/h (2 Bft)
28.08.2010 04:40 12,0 C 89 % 1011,5 hPa 0,0 mm 3,2 km/h (1 Bft) W 270 0 min 0 UV-I 0 W/m 9,7 km/h (2 Bft)
28.08.2010 04:50 11,9 C 89 % 1011,6 hPa 0,0 mm 3,2 km/h (1 Bft) W 270 0 min 0 UV-I 0 W/m 9,7 km/h (2 Bft)
28.08.2010 05:00 11,8 C 89 % 1011,8 hPa 0,0 mm 3,2 km/h (1 Bft) W 270 0 min 0 UV-I 0 W/m 11,3 km/h (2 Bft)
28.08.2010 05:10 11,7 C 89 % 1011,9 hPa 0,0 mm 3,2 km/h (1 Bft) W 270 0 min 0 UV-I 0 W/m 9,7 km/h (2 Bft)
28.08.2010 05:20 11,6 C 89 % 1012,0 hPa 0,0 mm 1,6 km/h (1 Bft) W-SW 247 0 min 0 UV-I 0 W/m 8,0 km/h (2 Bft)
28.08.2010 05:30 11,4 C 89 % 1012,1 hPa 0,0 mm 1,6 km/h (1 Bft) W-SW 247 0 min 0 UV-I 0 W/m 6,4 km/h (2 Bft)
28.08.2010 05:40 11,3 C 89 % 1012,1 hPa 0,0 mm 1,6 km/h (1 Bft) W-SW 247 0 min 0 UV-I 0 W/m 8,0 km/h (2 Bft)
28.08.2010 05:50 11,2 C 90 % 1012,2 hPa 0,0 mm 1,6 km/h (1 Bft) W-SW 247 0 min 0 UV-I 0 W/m 9,7 km/h (2 Bft)
28.08.2010 06:00 11,1 C 90 % 1012,3 hPa 0,0 mm 1,6 km/h (1 Bft) W-SW 247 0 min 0 UV-I 0 W/m 9,7 km/h (2 Bft)
28.08.2010 06:10 10,9 C 90 % 1012,3 hPa 0,0 mm 1,6 km/h (1 Bft) W-SW 247 0 min 0 UV-I 0 W/m 8,0 km/h (2 Bft)
28.08.2010 06:20 10,9 C 90 % 1012,5 hPa 0,0 mm 1,6 km/h (1 Bft) W-SW 247 0 min 0 UV-I 0 W/m 4,8 km/h (1 Bft)
28.08.2010 06:30 10,8 C 90 % 1012,6 hPa 0,0 mm 1,6 km/h (1 Bft) W-SW 247 0 min 0 UV-I 0 W/m 8,0 km/h (2 Bft)
28.08.2010 06:40 10,8 C 90 % 1012,8 hPa 0,0 mm 1,6 km/h (1 Bft) W-NW 292 0 min 0 UV-I 0 W/m 6,4 km/h (2 Bft)
28.08.2010 06:50 10,8 C 91 % 1012,9 hPa 0,0 mm 1,6 km/h (1 Bft) W 270 0 min 0 UV-I 5 W/m 11,3 km/h (2 Bft)
28.08.2010 07:00 10,8 C 91 % 1013,0 hPa 0,0 mm 1,6 km/h (1 Bft) W-SW 247 0 min 0 UV-I 9 W/m 6,4 km/h (2 Bft)
28.08.2010 07:10 10,8 C 91 % 1013,1 hPa 0,0 mm 3,2 km/h (1 Bft) W 270 0 min 0 UV-I 11 W/m 8,0 km/h (2 Bft)
28.08.2010 07:20 10,8 C 91 % 1013,1 hPa 0,0 mm 1,6 km/h (1 Bft) W-SW 247 0 min 0 UV-I 19 W/m 8,0 km/h (2 Bft)
28.08.2010 07:30 10,7 C 91 % 1013,1 hPa 0,0 mm 1,6 km/h (1 Bft) W 270 0 min 0 UV-I 49 W/m 8,0 km/h (2 Bft)
28.08.2010 07:40 10,8 C 91 % 1013,3 hPa 0,0 mm 1,6 km/h (1 Bft) W-NW 292 0 min 0 UV-I 65 W/m 11,3 km/h (2 Bft)
28.08.2010 07:50 10,8 C 91 % 1013,3 hPa 0,0 mm 3,2 km/h (1 Bft) W 270 0 min 0 UV-I 67 W/m 9,7 km/h (2 Bft)
28.08.2010 08:00 10,9 C 91 % 1013,4 hPa 0,0 mm 3,2 km/h (1 Bft) W-NW 292 0 min 0 UV-I 93 W/m 9,7 km/h (2 Bft)
28.08.2010 08:10 11,0 C 92 % 1013,5 hPa 0,0 mm 3,2 km/h (1 Bft) W-NW 292 10 min 1 UV-I 200 W/m 9,7 km/h (2 Bft)
28.08.2010 08:20 11,6 C 91 % 1013,5 hPa 0,0 mm 3,2 km/h (1 Bft) W 270 10 min 1 UV-I 207 W/m 8,0 km/h (2 Bft)
28.08.2010 08:30 11,9 C 90 % 1013,5 hPa 0,0 mm 3,2 km/h (1 Bft) W-NW 292 10 min 1 UV-I 207 W/m 9,7 km/h (2 Bft)
28.08.2010 08:40 12,3 C 88 % 1013,6 hPa 0,0 mm 4,8 km/h (1 Bft) W-NW 292 10 min 1 UV-I 246 W/m 14,5 km/h (3 Bft)
28.08.2010 08:50 12,6 C 87 % 1013,8 hPa 0,0 mm 3,2 km/h (1 Bft) W-NW 292 0 min 1 UV-I 118 W/m 14,5 km/h (3 Bft)
28.08.2010 09:00 12,6 C 86 % 1013,9 hPa 0,0 mm 3,2 km/h (1 Bft) W-NW 292 0 min 1 UV-I 83 W/m 11,3 km/h (2 Bft)
28.08.2010 09:10 12,6 C 87 % 1014,0 hPa 0,0 mm 1,6 km/h (1 Bft) W-NW 292 10 min 1 UV-I 294 W/m 11,3 km/h (2 Bft)
28.08.2010 09:20 12,9 C 85 % 1014,0 hPa 0,0 mm 4,8 km/h (1 Bft) W 270 10 min 1 UV-I 323 W/m 16,1 km/h (3 Bft)
28.08.2010 09:30 13,2 C 85 % 1014,1 hPa 0,0 mm 4,8 km/h (1 Bft) W 270 10 min 2 UV-I 434 W/m 11,3 km/h (2 Bft)
28.08.2010 09:40 13,5 C 85 % 1014,2 hPa 0,0 mm 3,2 km/h (1 Bft) W 270 0 min 2 UV-I 239 W/m 14,5 km/h (3 Bft)
28.08.2010 09:50 13,9 C 83 % 1014,3 hPa 0,0 mm 3,2 km/h (1 Bft) W 270 10 min 2 UV-I 478 W/m 12,9 km/h (3 Bft)
28.08.2010 10:00 14,3 C 80 % 1014,4 hPa 0,0 mm 4,8 km/h (1 Bft) W-NW 292 10 min 2 UV-I 492 W/m 16,1 km/h (3 Bft)
28.08.2010 10:10 14,6 C 79 % 1014,4 hPa 0,0 mm 6,4 km/h (2 Bft) W-NW 292 10 min 2 UV-I 512 W/m 17,7 km/h (3 Bft)
28.08.2010 10:20 14,7 C 79 % 1014,4 hPa 0,0 mm 4,8 km/h (1 Bft) W-NW 292 10 min 3 UV-I 584 W/m 19,3 km/h (3 Bft)
28.08.2010 10:30 15,1 C 76 % 1014,5 hPa 0,0 mm 4,8 km/h (1 Bft) W 270 10 min 2 UV-I 443 W/m 17,7 km/h (3 Bft)
28.08.2010 10:40 14,8 C 76 % 1014,5 hPa 0,0 mm 4,8 km/h (1 Bft) W-NW 292 10 min 3 UV-I 547 W/m 16,1 km/h (3 Bft)
28.08.2010 10:50 15,1 C 74 % 1014,4 hPa 0,0 mm 6,4 km/h (2 Bft) W 270 10 min 3 UV-I 564 W/m 17,7 km/h (3 Bft)
28.08.2010 11:00 15,1 C 75 % 1014,6 hPa 0,0 mm 4,8 km/h (1 Bft) W-NW 292 0 min 3 UV-I 134 W/m 16,1 km/h (3 Bft)
28.08.2010 11:10 15,2 C 71 % 1014,6 hPa 0,0 mm 4,8 km/h (1 Bft) NW 315 10 min 3 UV-I 540 W/m 17,7 km/h (3 Bft)
28.08.2010 11:20 15,3 C 72 % 1014,7 hPa 0,0 mm 6,4 km/h (2 Bft) W 270 10 min 4 UV-I 526 W/m 19,3 km/h (3 Bft)
28.08.2010 11:30 15,6 C 69 % 1014,6 hPa 0,0 mm 6,4 km/h (2 Bft) W 270 10 min 4 UV-I 533 W/m 17,7 km/h (3 Bft)
28.08.2010 11:40 15,8 C 68 % 1014,7 hPa 0,0 mm 6,4 km/h (2 Bft) W-SW 247 10 min 4 UV-I 613 W/m 19,3 km/h (3 Bft)
28.08.2010 11:50 15,8 C 66 % 1014,7 hPa 0,0 mm 6,4 km/h (2 Bft) W 270 0 min 2 UV-I 274 W/m 17,7 km/h (3 Bft)
28.08.2010 12:00 15,7 C 66 % 1014,7 hPa 0,0 mm 8,0 km/h (2 Bft) W 270 10 min 4 UV-I 765 W/m 20,9 km/h (4 Bft)
28.08.2010 12:10 15,9 C 66 % 1014,6 hPa 0,0 mm 4,8 km/h (1 Bft) W 270 0 min 2 UV-I 216 W/m 14,5 km/h (3 Bft)
28.08.2010 12:20 15,9 C 67 % 1014,6 hPa 0,0 mm 3,2 km/h (1 Bft) NW 315 10 min 5 UV-I 673 W/m 9,7 km/h (2 Bft)
28.08.2010 12:30 16,1 C 67 % 1014,5 hPa 0,0 mm 3,2 km/h (1 Bft) W 270 10 min 5 UV-I 598 W/m 11,3 km/h (2 Bft)
28.08.2010 12:40 16,9 C 61 % 1014,4 hPa 0,0 mm 6,4 km/h (2 Bft) W-SW 247 10 min 5 UV-I 626 W/m 20,9 km/h (4 Bft)
28.08.2010 12:50 17,3 C 62 % 1014,3 hPa 0,0 mm 8,0 km/h (2 Bft) W 270 10 min 4 UV-I 698 W/m 19,3 km/h (3 Bft)
28.08.2010 13:00 17,1 C 65 % 1014,3 hPa 0,0 mm 3,2 km/h (1 Bft) W-SW 247 10 min 5 UV-I 737 W/m 14,5 km/h (3 Bft)
28.08.2010 13:10 17,2 C 62 % 1014,3 hPa 0,0 mm 6,4 km/h (2 Bft) W 270 10 min 5 UV-I 735 W/m 16,1 km/h (3 Bft)
28.08.2010 13:20 16,9 C 65 % 1014,4 hPa 0,0 mm 4,8 km/h (1 Bft) W 270 10 min 4 UV-I 418 W/m 16,1 km/h (3 Bft)
28.08.2010 13:30 16,9 C 67 % 1014,5 hPa 0,0 mm 6,4 km/h (2 Bft) W 270 0 min 2 UV-I 281 W/m 19,3 km/h (3 Bft)
28.08.2010 13:40 16,1 C 71 % 1014,6 hPa 0,0 mm 6,4 km/h (2 Bft) W 270 0 min 2 UV-I 179 W/m 16,1 km/h (3 Bft)
28.08.2010 13:50 15,7 C 71 % 1014,6 hPa 0,0 mm 1,6 km/h (1 Bft) NW 315 0 min 3 UV-I 316 W/m 8,0 km/h (2 Bft)
28.08.2010 14:00 16,3 C 69 % 1014,5 hPa 0,0 mm 1,6 km/h (1 Bft) NW 315 10 min 3 UV-I 406 W/m 6,4 km/h (2 Bft)
28.08.2010 14:10 16,3 C 71 % 1014,6 hPa 0,0 mm 1,6 km/h (1 Bft) W-NW 292 0 min 1 UV-I 118 W/m 9,7 km/h (2 Bft)
28.08.2010 14:20 15,9 C 77 % 1014,8 hPa 1,0 mm 3,2 km/h (1 Bft) W 270 0 min 1 UV-I 90 W/m 9,7 km/h (2 Bft)
28.08.2010 14:30 14,9 C 82 % 1014,5 hPa 0,0 mm 1,6 km/h (1 Bft) N 360 0 min 1 UV-I 123 W/m 6,4 km/h (2 Bft)
28.08.2010 14:40 14,6 C 87 % 1014,6 hPa 0,0 mm 0,0 km/h (0 Bft) N 360 0 min 3 UV-I 207 W/m 3,2 km/h (1 Bft)
28.08.2010 14:50 14,8 C 87 % 1014,6 hPa 0,0 mm 0,0 km/h (0 Bft) N 360 0 min 3 UV-I 294 W/m 1,6 km/h (1 Bft)
28.08.2010 15:00 15,8 C 83 % 1014,4 hPa 0,0 mm 0,0 km/h (0 Bft) N-NO 22 10 min 4 UV-I 729 W/m 4,8 km/h (1 Bft)
28.08.2010 15:10 16,7 C 72 % 1014,4 hPa 0,0 mm 6,4 km/h (2 Bft) W 270 10 min 3 UV-I 663 W/m 19,3 km/h (3 Bft)
28.08.2010 15:20 16,8 C 71 % 1014,3 hPa 0,0 mm 6,4 km/h (2 Bft) W 270 10 min 3 UV-I 545 W/m 25,7 km/h (4 Bft)
28.08.2010 15:30 16,8 C 68 % 1014,3 hPa 0,0 mm 9,7 km/h (2 Bft) W-SW 247 10 min 3 UV-I 719 W/m 19,3 km/h (3 Bft)
28.08.2010 15:40 17,2 C 67 % 1014,1 hPa 0,0 mm 8,0 km/h (2 Bft) W-SW 247 0 min 2 UV-I 279 W/m 19,3 km/h (3 Bft)
28.08.2010 15:50 17,0 C 67 % 1014,1 hPa 0,0 mm 6,4 km/h (2 Bft) W 270 0 min 2 UV-I 211 W/m 20,9 km/h (4 Bft)
28.08.2010 16:00 16,8 C 68 % 1014,2 hPa 0,0 mm 6,4 km/h (2 Bft) W 270 0 min 2 UV-I 179 W/m 17,7 km/h (3 Bft)
28.08.2010 16:10 16,1 C 72 % 1015,0 hPa 1,0 mm 9,7 km/h (2 Bft) W 270 0 min 0 UV-I 30 W/m 27,4 km/h (4 Bft)
28.08.2010 16:20 14,0 C 80 % 1015,0 hPa 0,5 mm 6,4 km/h (2 Bft) W-NW 292 0 min 1 UV-I 65 W/m 22,5 km/h (4 Bft)
28.08.2010 16:30 12,9 C 83 % 1015,3 hPa 0,0 mm 6,4 km/h (2 Bft) W-NW 292 0 min 1 UV-I 74 W/m 19,3 km/h (3 Bft)
28.08.2010 16:40 12,5 C 85 % 1015,5 hPa 0,0 mm 4,8 km/h (1 Bft) NW 315 0 min 0 UV-I 21 W/m 19,3 km/h (3 Bft)
28.08.2010 16:50 12,3 C 86 % 1015,4 hPa 0,5 mm 1,6 km/h (1 Bft) W 270 0 min 0 UV-I 44 W/m 11,3 km/h (2 Bft)
28.08.2010 17:00 12,1 C 87 % 1015,4 hPa 0,0 mm 1,6 km/h (1 Bft) NW 315 0 min 0 UV-I 58 W/m 9,7 km/h (2 Bft)
28.08.2010 17:10 11,9 C 87 % 1015,3 hPa 0,0 mm 0,0 km/h (0 Bft) NW 315 0 min 1 UV-I 72 W/m 4,8 km/h (1 Bft)
28.08.2010 17:20 11,9 C 89 % 1015,5 hPa 0,0 mm 0,0 km/h (0 Bft) W-NW 292 0 min 1 UV-I 79 W/m 4,8 km/h (1 Bft)
28.08.2010 17:30 12,1 C 89 % 1015,4 hPa 0,0 mm 1,6 km/h (1 Bft) S-SW 202 0 min 0 UV-I 51 W/m 8,0 km/h (2 Bft)
28.08.2010 17:40 12,0 C 90 % 1015,3 hPa 0,0 mm 1,6 km/h (1 Bft) W 270 0 min 1 UV-I 93 W/m 6,4 km/h (2 Bft)
28.08.2010 17:50 12,1 C 90 % 1015,3 hPa 0,0 mm 0,0 km/h (0 Bft) S 180 10 min 1 UV-I 329 W/m 4,8 km/h (1 Bft)
28.08.2010 18:00 12,8 C 89 % 1015,1 hPa 0,0 mm 1,6 km/h (1 Bft) W 270 10 min 1 UV-I 441 W/m 8,0 km/h (2 Bft)
28.08.2010 18:10 13,3 C 87 % 1015,0 hPa 0,0 mm 3,2 km/h (1 Bft) W-SW 247 10 min 1 UV-I 381 W/m 9,7 km/h (2 Bft)
28.08.2010 18:20 13,5 C 86 % 1015,0 hPa 0,0 mm 4,8 km/h (1 Bft) W-SW 247 10 min 1 UV-I 299 W/m 14,5 km/h (3 Bft)
28.08.2010 18:30 13,6 C 85 % 1014,9 hPa 0,0 mm 3,2 km/h (1 Bft) S-SW 202 10 min 1 UV-I 278 W/m 11,3 km/h (2 Bft)
28.08.2010 18:40 13,7 C 84 % 1015,0 hPa 0,0 mm 4,8 km/h (1 Bft) W-SW 247 10 min 1 UV-I 271 W/m 17,7 km/h (3 Bft)
28.08.2010 18:50 13,6 C 83 % 1014,9 hPa 0,0 mm 4,8 km/h (1 Bft) W 270 10 min 1 UV-I 223 W/m 14,5 km/h (3 Bft)
28.08.2010 19:00 13,6 C 84 % 1014,9 hPa 0,0 mm 3,2 km/h (1 Bft) W-SW 247 10 min 1 UV-I 193 W/m 11,3 km/h (2 Bft)
28.08.2010 19:10 13,6 C 84 % 1014,9 hPa 0,0 mm 1,6 km/h (1 Bft) W-SW 247 10 min 0 UV-I 149 W/m 9,7 km/h (2 Bft)
28.08.2010 19:20 13,4 C 84 % 1014,9 hPa 0,0 mm 3,2 km/h (1 Bft) W-SW 247 0 min 0 UV-I 53 W/m 11,3 km/h (2 Bft)
28.08.2010 19:30 13,1 C 84 % 1014,9 hPa 0,0 mm 4,8 km/h (1 Bft) W 270 0 min 0 UV-I 32 W/m 14,5 km/h (3 Bft)
28.08.2010 19:40 13,0 C 85 % 1015,0 hPa 0,0 mm 4,8 km/h (1 Bft) W-SW 247 0 min 0 UV-I 33 W/m 14,5 km/h (3 Bft)
28.08.2010 19:50 12,9 C 86 % 1014,9 hPa 0,0 mm 1,6 km/h (1 Bft) W 270 0 min 0 UV-I 28 W/m 11,3 km/h (2 Bft)
28.08.2010 20:00 12,8 C 86 % 1014,8 hPa 0,0 mm 3,2 km/h (1 Bft) W-SW 247 0 min 0 UV-I 21 W/m 11,3 km/h (2 Bft)
28.08.2010 20:10 12,8 C 87 % 1014,8 hPa 0,0 mm 1,6 km/h (1 Bft) W 270 10 min 0 UV-I 9 W/m 9,7 km/h (2 Bft)
28.08.2010 20:20 12,8 C 87 % 1014,8 hPa 0,0 mm 1,6 km/h (1 Bft) W 270 0 min 0 UV-I 5 W/m 8,0 km/h (2 Bft)
28.08.2010 20:30 12,8 C 87 % 1014,9 hPa 0,0 mm 1,6 km/h (1 Bft) W-SW 247 0 min 0 UV-I 0 W/m 8,0 km/h (2 Bft)
28.08.2010 20:40 12,7 C 88 % 1015,0 hPa 0,0 mm 1,6 km/h (1 Bft) W-SW 247 0 min 0 UV-I 0 W/m 4,8 km/h (1 Bft)
28.08.2010 20:50 12,6 C 88 % 1015,0 hPa 0,0 mm 0,0 km/h (0 Bft) W-SW 247 0 min 0 UV-I 0 W/m 6,4 km/h (2 Bft)
28.08.2010 21:00 12,4 C 88 % 1015,2 hPa 0,0 mm 0,0 km/h (0 Bft) W-SW 247 0 min 0 UV-I 0 W/m 1,6 km/h (1 Bft)
28.08.2010 21:10 12,3 C 89 % 1015,2 hPa 0,0 mm 0,0 km/h (0 Bft) W-SW 247 0 min 0 UV-I 0 W/m 4,8 km/h (1 Bft)
28.08.2010 21:20 12,1 C 89 % 1015,3 hPa 0,0 mm 1,6 km/h (1 Bft) W-SW 247 0 min 0 UV-I 0 W/m 8,0 km/h (2 Bft)
28.08.2010 21:30 12,1 C 90 % 1015,2 hPa 0,0 mm 1,6 km/h (1 Bft) W 270 0 min 0 UV-I 0 W/m 8,0 km/h (2 Bft)
28.08.2010 21:40 12,1 C 90 % 1015,2 hPa 0,0 mm 1,6 km/h (1 Bft) W-SW 247 0 min 0 UV-I 0 W/m 8,0 km/h (2 Bft)
28.08.2010 21:50 12,1 C 90 % 1015,2 hPa 0,0 mm 1,6 km/h (1 Bft) W-SW 247 0 min 0 UV-I 0 W/m 8,0 km/h (2 Bft)
28.08.2010 22:00 12,0 C 90 % 1015,2 hPa 0,0 mm 1,6 km/h (1 Bft) W 270 0 min 0 UV-I 0 W/m 8,0 km/h (2 Bft)
28.08.2010 22:10 11,9 C 90 % 1015,2 hPa 0,0 mm 1,6 km/h (1 Bft) W-SW 247 0 min 0 UV-I 0 W/m 9,7 km/h (2 Bft)
28.08.2010 22:20 11,7 C 89 % 1015,2 hPa 0,0 mm 1,6 km/h (1 Bft) W-SW 247 0 min 0 UV-I 0 W/m 6,4 km/h (2 Bft)
28.08.2010 22:30 11,6 C 89 % 1015,2 hPa 0,0 mm 1,6 km/h (1 Bft) W-SW 247 0 min 0 UV-I 0 W/m 6,4 km/h (2 Bft)
28.08.2010 22:40 11,4 C 89 % 1015,2 hPa 0,0 mm 1,6 km/h (1 Bft) W-SW 247 0 min 0 UV-I 0 W/m 9,7 km/h (2 Bft)
28.08.2010 22:50 11,3 C 89 % 1015,2 hPa 0,0 mm 1,6 km/h (1 Bft) W-SW 247 0 min 0 UV-I 0 W/m 6,4 km/h (2 Bft)
28.08.2010 23:00 11,3 C 89 % 1015,2 hPa 0,0 mm 1,6 km/h (1 Bft) W-SW 247 0 min 0 UV-I 0 W/m 8,0 km/h (2 Bft)
28.08.2010 23:10 11,2 C 89 % 1015,2 hPa 0,0 mm 1,6 km/h (1 Bft) W-SW 247 0 min 0 UV-I 0 W/m 6,4 km/h (2 Bft)
28.08.2010 23:20 11,2 C 89 % 1015,2 hPa 0,0 mm 1,6 km/h (1 Bft) SW 225 0 min 0 UV-I 0 W/m 6,4 km/h (2 Bft)
28.08.2010 23:30 11,1 C 92 % 1015,2 hPa 0,0 mm 1,6 km/h (1 Bft) W-SW 247 0 min 0 UV-I 0 W/m 11,3 km/h (2 Bft)
28.08.2010 23:40 11,0 C 89 % 1015,1 hPa 0,0 mm 0,0 km/h (0 Bft) SW 225 0 min 0 UV-I 0 W/m 4,8 km/h (1 Bft)
28.08.2010 23:50 10,9 C 89 % 1015,3 hPa 0,0 mm 0,0 km/h (0 Bft) SW 225 0 min 0 UV-I 0 W/m 3,2 km/h (1 Bft)
_ Min-Zeit 06:50 12:40 00:00 - 14:40 - - - - - 14:50
Minimum _ 10,7 C 61 % 1009,4 hPa - 0,0 km/h (0 Bft) - - - - - 1,6 km/h (1 Bft)
_ Max-Zeit 12:50 08:10 16:40 14:20 15:30 - - 08:10 13:10 12:00 16:10
Maximum _ 17,4 C 92 % 1015,5 hPa 1,0 mm 9,7 km/h
W-SW (2 Bft)
- - 10 min 5 UV-I 765 W/m 27,4 km/h
W-SW (4 Bft)
Durchschnitt _ 13,2 C 84 % 1013,6 hPa #3,0 mm 3,1 km/h (1 Bft) W - #6:50 h 2 UV-I 281 W/m 11,3 km/h (2 Bft)